星链-30921 (STARLINK-30921 )

导读 | 星芒AI

STARLINK-30921 是 SpaceX Starlink 卫星互联网项目中的第 30921 颗卫星。该卫星属于 Starlink 群体部署计划的一部分,旨在通过低地球轨道卫星提供全球高速互联网服务。它采用先进的通信技术,支持宽带连接,尤其服务于偏远和网络覆盖不足的地区。该卫星由 SpaceX 设计、制造并发射,为 Starlink 网络的扩展和性能优化做出贡献。

基本信息
目录编号:
58383
目录名称:
STARLINK-30921
国际标识:
2023-178K
轨道中心:
EARTH
卫星名称:
星链-30921
卫星全名:
星链-30921 (STARLINK-30921 )
卫星状态:
在轨 (已飞行711 天)
发射日期:
2023-11-20 UTC
国别 :
美国 (US)
星等 :
--
轨道信息
数据来源 国际轨道数据
星历时间: 2025-10-31T11:03:50+0800
10小时前
查看轨道信息
半长轴: 6853.39km
偏心率: 0.000125
轨道倾角: 53.161°
近地点辐角 91.589°
升交点赤经 242.967°
平近点角 268.526°
近地点: 474.398km
远地点: 476.112km
周期: 94.106分钟
每日圈数: 15.301873
详细信息
固有亮度:
5
最大亮度:
0.3
卫星平台:
Starlink v2.0 mini
覆盖范围:
全球
运营商:
太空探索技术公司
运营商所在国:
美国
制造商(研发单位):
太空探索技术公司
制造商所在国:
美国
使用方式:
暂无
卫星简介
星链(Starlink)计划是由太空探索技术公司(SpaceX)提出的一个巨型低轨卫星互联网星座项目,计划在2019年至2024年间在太空搭建由约1.2万颗卫星组成的“星链”网络,其中1584颗将部署在地球上空550千米处的近地轨道,并从2020年开始工作。该卫星仍在工作。
2D轨道图
3D轨道图
轨道高度分析图
轨道倾角分析图
轨道综合分析图
查看轨道综合分析图